User: anonymous   Login
Location: Cuzcurrita-R�o Tir�n
(42.5415°N, 2.9642°W)
Time: 04:29:19
(UTC+00:00)
Language:

CZ-4 R/B - Orbit

View from above orbital plane
View from above orbital plane
View from above satellite
View from above satellite

Ground track
Ground track

The orbit data is extracted from the following two-line orbital elements,

1 29507U 06046C   21112.48717717  .00001223  00000-0  99072-4 0  9997
2 29507  97.7289 138.6675 0046786 203.4205 156.4889 15.00785743791716
Epoch (UTC): 22 April 2021 11:41:32
Eccentricity: 0.0046786
inclination: 97.7289°
perigee height: 532 km
apogee height: 597 km
right ascension of ascending node: 138.6675°
argument of perigee: 203.4205°
revolutions per day: 15.00785743
mean anomaly at epoch: 156.4889°
orbit number at epoch: 79171

The dashed part of the orbit path shows where the satellite is in the earth's shadow,  

DLR